Terminal Aerodrome Forecast
Issued by NWS Blacksburg, VA

Current Version | Previous Version | Graphics & Text | Print | Product List | Glossary On
Versions: 1 2 3 4 5 6 7 8 9 10 11 12 13 14 15 16 17 18 19 20 21 22 23 24 25 26 27 28 29 30 31 32 33 34 35 36 37 38 39 40 41 42 43 44 45 46 47 48 49 50
000
FTUS41 KRNK 290526
TAFBLF
TAF
KBLF 290526Z 2906/3006 28007KT P6SM OVC005
     FM291300 28006KT P6SM BKN010
     FM291600 29007KT P6SM BKN035
      TEMPO 2918/2920 3SM TSRA OVC050CB
     FM300400 VRB03KT P6SM BKN060=

USA.gov is the U.S. government's official web portal to all federal, state and local government web resources and services.